User: anonymous   Login
Location: Tierz
(42.1336°N, 0.3549°W)
Time: 15:47:01
(UTC+00:00)
Language:

H-2A R/B (2) - Orbit

View from above orbital plane
View from above orbital plane
View from above satellite
View from above satellite

Ground track
Ground track

The orbit data is extracted from the following two-line orbital elements,

1 27518U 02042D   21016.67948875  .00000011  00000-0  29873-3 0  9999
2 27518  28.3737 216.3185 7125568 191.9862 131.6322  2.36458220158476
Epoch (UTC): 16 January 2021 16:18:27
Eccentricity: 0.7125568
inclination: 28.3737°
perigee height: 463 km
apogee height: 34379 km
right ascension of ascending node: 216.3185°
argument of perigee: 191.9862°
revolutions per day: 2.36458220
mean anomaly at epoch: 131.6322°
orbit number at epoch: 15847

The dashed part of the orbit path shows where the satellite is in the earth's shadow,  

DLR